Home > Time Zones > World Clock > Weather > Spain > Lugo > Past weeks

Flag for Spain Weather past 2 weeks in Lugo, Galicia, Spain

Now
57 °F

Passing clouds.


Feels Like: 57 °F
Forecast: 55 / 76 °F
Wind: No wind

Location: Santiago / Labacolla

Current Time: Jul 7, 2015 at 6:45:36 AM

Latest Report: Jul 7, 2015 at 6:00 AM


Visibility: N/A

Pressure: 30.12 "Hg

Humidity: 88%

Dew point: 54 °F

Location of LugoLocation

Historic Weather in Lugo — Graph

°F

Lugo temperature yesterday

Maximum temperature yesterday: 86 °F (at 4:30 PM)
Minimum temperature yesterday: 50 °F (at 7:30 AM)
Average temperature yesterday: 66 °F

Past Weeks' High & Low Weather Summary

 TemperatureHumidityPressure
High95 °F (Jun 29, 4:30 PM)100% (Jun 23, 12:00 AM)30.27 "Hg (Jun 23, 12:00 AM)
Low50 °F (Jul 2, 7:00 AM)23% (Jun 29, 5:30 PM)29.92 "Hg (Jun 30, 8:00 PM)
Average65 °F78%30.13 "Hg
* Reported Jun 22 5:00 AM — Jul 7 5:00 AM, Lugo, Weather by CustomWeather, © 2015

Note: Actual official high and low records may vary slightly from our data, if they occured in-between our weather recording intervals... More about our weather records

Advertising

Lugo weather history for previous 24 hours

 ConditionsComfort  
Time TempWeatherWind HumidityBarometerVisibility
5:00 AM
Tue, Jul 7
55 °FPassing clouds.No wind88%30.12 "HgN/A
4:30 AM55 °FClear.No wind88%30.12 "Hg10 mi
4:00 AM55 °FClear.No wind88%30.12 "Hg10 mi
3:30 AM55 °FClear.2 mph88%30.12 "Hg10 mi
3:00 AM59 °FClear.No wind77%30.12 "Hg10 mi
2:30 AM57 °FClear.No wind82%30.12 "Hg10 mi
2:00 AM61 °FClear.2 mph77%30.12 "Hg10 mi
1:30 AM61 °FClear.No wind72%30.12 "Hg10 mi
1:00 AM61 °FClear.No wind72%30.12 "Hg10 mi
12:30 AM59 °FClear.No wind82%30.12 "Hg10 mi
12:00 AM61 °FClear.1 mph77%30.12 "Hg10 mi
11:00 PM
Mon, Jul 6
64 °FPassing clouds.5 mph64%30.12 "HgN/A
10:30 PM64 °FSunny.6 mph60%30.12 "Hg10 mi
10:00 PM66 °FSunny.7 mph56%30.12 "Hg10 mi
9:30 PM70 °FSunny.8 mph53%30.12 "Hg10 mi
9:00 PM72 °FSunny.10 mph50%30.12 "Hg10 mi
8:30 PM72 °FSunny.12 mph61%30.09 "Hg10 mi
8:00 PM73 °FPassing clouds.13 mph61%30.09 "HgN/A
7:30 PM77 °FPassing clouds.14 mph54%30.09 "HgN/A
7:00 PM81 °FPassing clouds.10 mph45%30.07 "HgN/A
6:30 PM82 °FPassing clouds.9 mph42%30.07 "HgN/A
6:00 PM84 °FPassing clouds.7 mph40%30.07 "HgN/A
5:30 PM86 °FSunny.5 mph33%30.07 "Hg10 mi
5:00 PM84 °FSunny.6 mph37%30.09 "Hg10 mi
4:30 PM86 °FPassing clouds.3 mph24%30.09 "HgN/A
4:00 PM82 °FSunny.3 mph30%30.09 "Hg10 mi
3:30 PM84 °FSunny.1 mph33%30.09 "Hg10 mi
3:00 PM81 °FSunny.6 mph34%30.09 "Hg10 mi
2:30 PM81 °FSunny.3 mph32%30.09 "Hg10 mi
2:00 PM81 °FSunny.3 mph28%30.09 "Hg10 mi
1:30 PM77 °FPassing clouds.3 mph30%30.09 "HgN/A
1:00 PM75 °FSunny.2 mph47%30.12 "Hg10 mi
12:30 PM72 °FSunny.2 mph61%30.12 "Hg10 mi
12:00 PM68 °FPassing clouds.3 mph69%30.12 "HgN/A
11:30 AM64 °FSunny.2 mph78%30.12 "Hg10 mi
11:00 AM63 °FFog.2 mph83%30.12 "HgN/A
10:30 AM59 °FCool.2 mph94%30.12 "HgN/A
10:00 AM55 °FScattered clouds.2 mph100%30.12 "Hg6 mi
9:30 AM57 °FPartly sunny.No wind94%30.12 "Hg4 mi
9:00 AM55 °FFog.2 mph100%30.12 "Hg0 mi
8:30 AM55 °FFog.1 mph100%30.12 "Hg0 mi
8:00 AM52 °FPassing clouds.No wind100%30.12 "Hg1 mi
7:30 AM50 °FPassing clouds.No wind94%30.12 "Hg1 mi
7:00 AM54 °FPassing clouds.2 mph100%30.12 "Hg2 mi
6:30 AM54 °FPassing clouds.5 mph100%30.12 "Hg3 mi
6:00 AM54 °FFog.3 mph100%30.12 "Hg4 mi
Weather by CustomWeather, © 2015

See weather overviewHow to use our weather pages